www.pogodaiklimat.ru
ПОГОДА в Йоро
Время
(UTC), дата
21 7.11
00 8.11
12 8.11
15 8.11
18 8.11
21 8.11
00 9.11
12 9.11
15 9.11
18 9.11
21 9.11
00 10.11
15 10.11
18 10.11
12 11.11
15 11.11
18 11.11
21 11.11
00 12.11
12 12.11
15 12.11
18 12.11
21 12.11
00 13.11
12 13.11
15 13.11
18 13.11
21 13.11
00 14.11
12 14.11
15 14.11
Ветер
(напр.,м/с)
Видим. Явления Облачность Т
(С)
Тd
(С)
f
(%)
Тe
(С)
Тes
(С)
Комфортность P
(гПа)
Po
(гПа)
Тmin
(С)
Tmax
(С)
R
(мм)
R24
(мм)
S
(см)
СВ 2 10 км мгла {туман} 8/4 750 м
[Cu med, cong Ac As]
+26.4 +20.5 70 +33 +35 очень
душно
1013.5 938.5
С 2 10 км осадки на расстоянии {морось, туман} 9/5 700 м
[Cu med, cong Ac As]
+24.3 +21.2 83 +31 +31 очень
душно
1013.9 938.7 +18.4 +28.4 0.2
В 2 10 км дымка 9/4 600 м
[Sc Ac As]
+20.4 +20.1 98 +25 +25 комфорт 1014.7 939.0 0.0 +28.4
Ю 2 10 км местами туман поземный 9/9 600 м
[Sc diur, vesp Ac und Cs]
+22.8 +21.7 94 +31 +32 очень
душно
1015.5 940.1 0.2
В 2 10 км в посл. час морось {туман} 8/8 600 м
[Cb calv Ac und Cs]
+25.0 +20.0 74 +32 +37 очень
душно
1013.9 939.1 +20.0 +25.0 1
В 2 10 км осадки на расстоянии {морось, туман} 9/9 600 м
[Sc diur, vesp Ac und Cs]
+24.2 +22.0 88 +31 +33 очень
душно
1012.5 938.0 0.4
З 2 10 км мгла {туман} 8/4 600 м
[Sc Ac As]
+23.0 +21.6 92 +31 +31 очень
душно
1013.1 938.4 +20.0 +25.4 1
Ю 2 10 км осадки на расстоянии 9/6 600 м
[Sc Ac As]
+20.4 +20.1 98 +25 +25 комфорт 1013.6 938.0 +20.0 +25.4
С 2 8000 м морось {дождь} 10/6 600 м
[Sc As op]
+20.8 +20.5 98 +26 +27 душно 1016.8 940.8
З 2 10 км в посл. час морось {дождь, туман} 9/5 600 м
[Sc Ac As]
+22.0 +21.2 95 +28 +32 душно 1015.5 931.9 +20.0 +22.0 6
З 2 10 км в посл. час дождь {морось} 10/6 600 м
[Sc]
+21.6 +21.0 96 +27 +29 душно 1013.3 938.9 5
З 2 8000 м в посл. час морось {дождь, туман} 10/6 600 м
[Sc]
+21.2 +20.9 98 +27 +27 душно 1014.7 939.2 0.0 +22.0 2
С 2 10 км 9/9 600 м
[]
+20.4 +19.8 96 +25 +26 комфорт 941.3 0.6
Ю 2 10 км мгла {туман} 6/4 700 м
[Cu med, cong Ac trans]
+25.8 +20.8 74 +32 +40 очень
душно
1015.2 939.8 +19.0 +25.8
З 2 10 км дымка 8/4 600 м
[Sc Ac As]
+19.2 +18.9 98 +22 +22 комфорт 1014.1 938.2 +19.0 +26.0 4.6
З 2 10 км осадки на расстоянии {туман} 9/5 600 м
[Sc Ac As]
+20.8 +19.9 95 +26 +28 душно 1015.7 940.2
З 2 10 км мгла {туман} 5/5 750 м
[Cu med, cong]
+26.6 +21.4 73 +34 +41 очень
душно
1013.9 939.1 +19.0 +26.6
З 3 10 км мгла {туман} 6/6 750 м
[Cu med, cong]
+28.0 +20.5 64 +35 +37 очень
душно
1012.0 938.4
10 км мгла {туман} 5/5 750 м
[Cu med, cong]
+24.0 +20.9 83 1013.1 938.4 -9.0 +28.2
С 2 10 км дымка 9/4 600 м
[Sc Ac As]
+20.2 +19.9 98 +25 +25 комфорт 1014.7 938.8 +20.0 +28.2
З 2 10 км мгла {туман} 8/5 700 м
[Cu med, cong Ac trans]
+22.6 +20.9 90 +30 +32 очень
душно
1015.5 940.1
Ю 2 10 км мгла {туман} 5/5 750 м
[Cu med, cong]
+28.2 +20.7 64 +35 +43 очень
душно
1013.6 939.0 +20.0 +28.2
З 3 10 км осадки на расстоянии {туман} 6/6 750 м
[Cu med, cong]
+27.4 +20.1 64 +34 +36 очень
душно
1012.0 938.4
Ю 2 10 км в посл. час морось {туман} 9/6 600 м
[Sc Ac As]
+22.0 +20.6 92 +28 +28 душно 1014.1 938.6 +20.0 +29.4 0.4
С 2 10 км дымка 8/4 600 м
[Sc Ac As]
+18.2 +17.9 98 +19 +19 тепло 1014.9 939.3 +18.0 +29.4
З 3 10 км мгла {туман} 5/5 600 м
[Sc diur, vesp]
+22.2 +20.5 90 +29 +32 очень
душно
1016.8 940.6
З 3 10 км мгла {туман} 5/5 750 м
[Cu med, cong]
+27.8 +21.2 67 +35 +42 очень
душно
1014.7 939.8 +18.0 +27.8
С 2 10 км мгла {туман} 6/6 750 м
[Cu med, cong]
+28.2 +19.8 60 +34 +37 очень
душно
1012.0 938.4
З 3 10 км осадки на расстоянии {туман} 8/5 700 м
[Cu med, cong Ac As]
+21.6 +20.8 95 +27 +27 душно 1014.1 938.8 +18.0 +29.8 5 5.2
С 1 10 км дымка 4/4 600 м
[Sc]
+18.0 +17.7 98 +19 +19 тепло 1016.0 939.5 +17.9 +29.8 5.2
ЮЗ 2 10 км мгла {туман} 5/5 600 м
[Sc diur, vesp]
+23.0 +21.0 89 +31 +34 очень
душно
1017.6 941.5
Местоположение метеостанции Йоро (Гондурас): широта 15.17 долгота -87.11 высота над уровнем моря 670 м.
В архиве по умолчанию представлена погода в Йоро за последнюю неделю. Архивные данные за месяц целиком и за предыдущие месяцы, начиная с января 2011 года, Вы можете получить, выбрав интересующий диапазон дат из раскрывающегося списка и нажав кнопку "Найти!".
*Определитесь, кто Вы:
Внимание! Время в таблицах - всемирное. Для получения местного времени необходимо прибавить поправку, которая равна -6 ч.
Смотрите также архив погоды в соседних городах и на ближайших метеорологических станциях:
Партнеры нашего сайта:      
Пояснения к столбцам:
  • Ветер - указаны скорость ветра в м/с - средняя за 10 мин, порывы в срок и между сроками (в фигурных скобках) и направление, откуда дует ветер: С - северный,
  • СВ - северо-восточный, В - восточный, ЮВ - юго-восточный, Ю - южный, ЮЗ - юго-западный, З - западный, СЗ - северо-западный.
  • Видимость - горизонтальная дальность видимости в метрах или километрах. При видимости от 1 до 10 км при отсутствии осадков обычно наблюдается дымка, при ухудшении видимости до 1 км и менее - туман. В сухую погоду видимость может ухудшаться дымом, пылью или мглою.
  • Явления - указаны атмосферные явления, наблюдавшиеся в срок или в последний час перед сроком; фигурными скобками обозначены явления, наблюдавшиеся между сроками (за 1-3 часа до срока); квадратными скобками обозначены град или гололедные отложения с указанием их диаметра в мм.
  • Облачность - указаны через наклонную черту общая и нижняя облачность в баллах и высота нижней границы облаков в метрах; квадратными скобками обозначены формы облаков: Ci - перистые, Cs - перисто-слоистые, Cc - перисто-кучевые, Ac - высококучевые, As - высокослоистые, Sc - слоисто-кучевые, Ns - слоисто-дождевые, Cu - кучевые, Cb - кучево-дождевые. Подробнее классификацию облаков см. в Атласе облаков (PDF).
  • T - Температура воздуха - температура, измеренная на высоте 2 м над землей.
  • Td - Температура точки росы - температура, при понижении до которой содержащийся в воздухе водяной пар достигнет насыщения.
  • f - Относительная влажность воздуха - влажноcть воздуха, измеренная на высоте 2 м над землей.
  • Te - Эффективная температура - температура, которую ощущает одетый по сезону человек в тени. Характеристика душности погоды. При расчете учитывается влияние влажности воздуха и скорости ветра на теплоощущения человека.
  • Tes - Эффективная температура на солнце - температура, которую ощущает человек, с поправкой на солнечный нагрев. Характеристика знойности погоды. Зависит от высоты солнца над горизонтом, облачности и скорости ветра. Ночью, в пасмурную погоду, а также при ветре 12 м/с и более поправка равна нулю.
  • P - Атмосферное давление - приведенное к уровню моря атмосферное давление.
  • Po - Атмосферное давление - измеренное на уровне метеостанции атмосферное давление.
  • Tmin - Минимальная температура - минимум температуры воздуха на высоте 2 м над землей.
  • Tmax - Максимальная температура - максимум температуры воздуха на высоте 2 м над землей.
  • R - Количество осадков - Количество выпавших осадков за период времени, мм. При наведении курсора мыши на число - период времени, за который выпало указанное количество осадков.
  • R24 - Количество осадков - Количество выпавших осадков за 24 часа, мм.
  • S - Снежный покров - Высота снежного покрова, см. При наведении курсора мыши на число - состояние снежного покрова и степень покрытия местности в баллах.